Regional Weather Roundup
Issued by NWS

Home | Current Version | Previous Version | Graphics & Text | Print | Product List | Glossary On
Versions: 1 2 3 4 5 6 7 8 9 10 11 12 13 14 15 16 17 18 19 20 21 22 23 24 25 26 27 28 29 30 31 32 33 34 35 36 37 38 39 40 41 42 43 44 45 46 47 48 49 50
000
ASUS45 KABQ 292310
RWRNM
WEATHER ROUNDUP FOR NEW MEXICO
NATIONAL WEATHER SERVICE ALBUQUERQUE NM
500 PM MDT TUE JUL 29 2014

NOTE: "FAIR" MEANS FEW OR NO CLOUDS BELOW 12,000 FEET AGL WITH NO
       SIGNIFICANT WEATHER OR OBSTRUCTIONS TO VISION.

      THIS PRODUCT IS RELEASED AS TWO VERSIONS.  ONE VERSION NEAR
      THE TOP OF THE HOUR CONTAINING PRELIMINARY DATA FROM ALBUQUERQUE
      AND OTHER STATIONS.  A FINAL VERSION WITH ADDITIONAL DATA IS
      ISSUED ABOUT 10 MINUTES AFTER THE HOUR.

NMZ501-503-504-510>518-300000-
NORTHWEST PLATEAU/NORTHCENTRAL MOUNTAINS

CITY           SKY/WX    TMP DP  RH WIND       PRES   REMARKS
FARMINGTON     SUNNY     87  49  26 W13G25    30.14F
LOS ALAMOS     PTSUNNY   70  57  63 E5        30.31F
SANTA FE       CLOUDY    70  60  70 N8        30.25F
TAOS           PTSUNNY   75  50  41 SW14      30.29F THUNDER
ANGEL FIRE     MOCLDY    68  53  57 S5G16     30.39S

$$
NMZ402-403-502-505>509-300000-
WESTCENTRAL MOUNTAINS/SOUTHWEST MOUNTAINS

CITY           SKY/WX    TMP DP  RH WIND       PRES   REMARKS
GALLUP         PTSUNNY   83  45  26 W13       30.23F
SILVER CITY    PTSUNNY   84  50  30 SW5       30.21F

$$
NMZ407-409-411-412-300000-
SOUTHERN DESERTS

CITY           SKY/WX    TMP DP  RH WIND       PRES   REMARKS
LORDSBURG      FAIR      91  52  25 W8G18     30.10F
DEMING         PTSUNNY   90  55  30 S5        30.11F
LAS CRUCES     PTSUNNY   89  54  30 CALM      30.14F
HOLLOMAN AFB   MOSUNNY   86  59  39 NW1       30.11F
ALAMOGORDO     MOSUNNY   86  57  37 S5        30.13F
T OR C         CLOUDY    73  63  70 SE5       30.18F

$$
NMZ519>523-300000-
CENTRAL VALLEYS/CENTRAL HIGHLANDS

CITY           SKY/WX    TMP DP  RH WIND       PRES   REMARKS
ALBUQUERQUE    TSTM      65  62  90 VRB3      30.22R FOG
DOUBLE EAGLE   PTSUNNY   75  59  57 E14       30.24R
MORIARTY ARPT  CLOUDY    64  56  76 E10G52    30.28R VSB 1/2
CLINES CORNERS PTSUNNY   70  58  65 SW12      30.30F
BELEN          FAIR      86  54  32 S13G21    30.15F
SOCORRO        FAIR      83  58  43 S15       30.16F

$$
NMZ524>526-539-540-300000-
SOUTHCENTRAL MOUNTAINS

CITY           SKY/WX    TMP DP  RH WIND       PRES   REMARKS
RUIDOSO        PTSUNNY   68  57  68 NE6       30.34S

$$
NMZ527>531-300000-
NORTHEAST HIGHLANDS/NORTHEAST PLAINS

CITY           SKY/WX    TMP DP  RH WIND       PRES   REMARKS
LAS VEGAS      LGT RAIN  64  61  90 SW12      30.29F
RATON          LGT RAIN  68  63  84 W7        30.24S
CLAYTON        PTSUNNY   79  59  50 S18       30.15F

$$
NMZ532>537-300000-
EASTCENTRAL PLAINS

CITY           SKY/WX    TMP DP  RH WIND       PRES   REMARKS
TUCUMCARI      PTSUNNY   81  63  54 SW14      30.11F
CANNON AFB     SUNNY     80  66  63 SW13      30.17F
CLOVIS AIRPORT NOT AVBL

$$
NMZ028-029-538-300000-
SOUTHEAST PLAINS

CITY           SKY/WX    TMP DP  RH WIND       PRES   REMARKS
ROSWELL        MOSUNNY   80  66  62 NE3       30.12F
ARTESIA        SUNNY     90  57  33 S3        30.09F
CARLSBAD       PTSUNNY   94  52  24 MISG      30.05F
HOBBS          SUNNY     86  59  39 E12G18    30.12F


$$


USA.gov is the U.S. government's official web portal to all federal, state and local government web resources and services.